LB9CG Weather Reports


Display with metric or nautical units.
time (UTC)temp
F
wind
direction
speed
MPH
gust
MPH
rain 1hr
in
rain 24hr
in
rain mn
in
humidity
%
barometer
mb
20260831052100 51 0.0 0.0 0.00 0.06 0.01 99 1004.2
20260831051123 51 0.0 0.0 0.00 0.06 0.01 99 1004.3
20260831050036 50 0.0 0.0 0.00 0.06 0.01 99 1004.2
20260831045100 50 0.0 0.0 0.00 0.06 0.01 99 1004.2
20260831044124 50 0.0 0.0 0.00 0.06 0.01 99 1004.2
20260831043036 51 0.0 0.0 0.00 0.06 0.01 99 1004.2
20260831042100 51 0.0 0.0 0.00 0.06 0.01 99 1003.9
20260831041144 51 0.0 0.0 0.00 0.06 0.01 99 1004.1
20260831040036 51 0.0 0.0 0.00 0.06 0.01 99 1004.0
20260831035100 51 0.0 0.0 0.00 0.06 0.01 99 1003.9
20260831034124 50 0.0 0.0 0.00 0.06 0.01 99 1003.9
20260831033036 51 0.0 0.0 0.00 0.06 0.01 99 1003.9
20260831032100 51 0.0 0.0 0.00 0.06 0.01 99 1003.9
20260831031124 51 0.0 0.0 0.00 0.06 0.01 99 1003.9
20260831030036 51 0.0 0.0 0.00 0.06 0.01 99 1003.8
20260831025119 50 0.0 0.0 0.00 0.06 0.01 99 1003.9
20260831024143 50 0.0 0.0 0.00 0.06 0.01 99 1003.9
20260831023036 50 0.0 0.0 0.00 0.06 0.01 99 1003.9
20260831022059 50 0.0 0.0 0.00 0.06 0.01 99 1004.1
20260831021123 50 0.0 0.0 0.00 0.06 0.01 99 1004.0
20260831020035 50 0.0 0.0 0.01 0.06 0.01 99 1004.1
20260831015059 50 0.0 0.0 0.01 0.06 0.01 99 1004.0
20260831014123 50 0.0 0.0 0.01 0.06 0.01 99 1004.0
20260831013035 50 0.0 0.0 0.01 0.06 0.01 99 1003.9
20260831012059 50 0.0 0.0 0.01 0.06 0.01 99 1004.1
20260831011123 50 0.0 0.0 0.00 0.05 0.00 99 1003.9
20260831010036 50 0.0 0.0 0.00 0.05 0.00 99 1004.0
20260831005059 50 0.0 0.0 0.00 0.05 0.00 99 1003.9
20260831004124 50 0.0 0.0 0.00 0.05 0.00 99 1003.9
20260831003036 50 0.0 0.0 0.00 0.05 0.00 99 1004.0
20260831002119 49 0.0 0.0 0.00 0.05 0.00 99 1003.9
20260831001123 50 0.0 0.0 0.00 0.05 0.00 99 1004.0
20260831000035 50 0.0 0.0 0.00 0.05 0.00 99 1003.9
20260830235059 51 0.0 0.0 0.00 0.05 0.00 99 1004.0
20260830234123 51 0.0 0.0 0.00 0.05 0.00 99 1004.0
20260830233035 51 0.0 0.0 0.00 0.05 0.00 99 1004.0
20260830232059 51 0.0 0.0 0.00 0.05 0.00 99 1004.0
20260830231123 51 0.0 0.0 0.00 0.05 0.00 99 1004.0
20260830230036 51 0.0 0.0 0.00 0.05 0.05 99 1003.9
20260830225102 52 0.0 0.0 0.00 0.05 0.05 99 1003.9
20260830224126 52 0.0 0.0 0.00 0.05 0.05 99 1003.9
20260830222102 52 0.0 0.0 0.00 0.05 0.05 99 1003.7
20260830221126 52 0.0 0.0 0.00 0.05 0.05 98 1003.7
20260830220038 52 0.0 0.0 0.00 0.05 0.05 98 1003.8
20260830215102 52 0.0 0.0 0.00 0.05 0.05 98 1003.5
20260830214126 52 0.0 0.0 0.00 0.05 0.05 98 1003.7
20260830213038 53 0.0 0.0 0.00 0.05 0.05 98 1003.8
20260830212102 52 0.0 0.0 0.00 0.05 0.05 98 1003.6
20260830211126 52 0.0 0.0 0.00 0.05 0.05 98 1003.5
20260830210038 52 0.0 0.0 0.00 0.05 0.05 98 1003.5
20260830205102 52 0.0 0.0 0.00 0.05 0.05 98 1003.6
20260830204146 52 0.0 0.0 0.00 0.05 0.05 97 1003.6
20260830203058 52 0.0 0.0 0.00 0.05 0.05 97 1003.5
20260830202142 52 0.0 0.0 0.00 0.05 0.05 97 1003.2
20260830201126 53 0.0 0.0 0.00 0.05 0.05 98 1003.4
20260830200058 53 0.0 0.0 0.00 0.05 0.05 98 1003.3
20260830195122 53 0.0 0.0 0.00 0.05 0.05 97 1003.4
20260830194125 53 0.0 0.0 0.00 0.05 0.05 97 1003.5
20260830193037 53 0.0 0.0 0.00 0.05 0.05 97 1003.5
20260830192101 53 0.0 0.0 0.00 0.05 0.05 97 1003.3
20260830191126 53 0.0 0.0 0.00 0.05 0.05 96 1003.2
20260830190037 53 0.0 0.0 0.05 0.05 0.05 96 1003.1
20260830185102 54 0.0 0.0 0.05 0.05 0.05 96 1003.1
20260830184125 54 333 1.0 2.0 0.04 0.04 0.04 96 1003.0
20260830183037 54 0.0 0.0 0.02 0.02 0.02 95 1002.9
20260830182122 54 339 1.0 1.0 0.01 0.01 0.01 95 1003.0
20260830181125 55 0.0 0.0 0.00 0.00 0.00 92 1002.9
20260830180037 55 6 1.0 2.0 0.00 0.00 0.00 91 1002.8
20260830175102 55 318 1.0 2.0 0.00 0.00 0.00 92 1002.9
20260830174126 55 336 1.0 2.0 0.00 0.00 0.00 91 1002.7
20260830173037 55 15 0.0 1.0 0.00 0.00 0.00 91 1002.6
20260830172121 55 11 1.0 2.0 0.00 0.00 0.00 91 1002.5
20260830171126 55 357 1.0 1.0 0.00 0.00 0.00 90 1002.5
20260830170038 56 305 1.0 3.0 0.00 0.00 0.00 89 1002.5
20260830165101 56 0.0 0.0 0.00 0.00 0.00 87 1002.2
20260830164145 56 336 0.0 1.0 0.00 0.00 0.00 87 1002.3
20260830163057 56 9 0.0 2.0 0.00 0.00 0.00 86 1002.0
20260830162102 56 331 1.0 2.0 0.00 0.00 0.00 86 1002.1
20260830161126 57 262 1.0 3.0 0.00 0.00 0.00 86 1002.0
20260830160038 57 286 1.0 1.0 0.00 0.00 0.00 85 1002.1
20260830155121 57 288 1.0 3.0 0.00 0.00 0.00 85 1002.0
20260830154125 57 0.0 0.0 0.00 0.00 0.00 85 1002.1
20260830153037 57 13 1.0 2.0 0.00 0.00 0.00 85 1002.1
20260830152101 57 260 2.0 3.0 0.00 0.00 0.00 84 1002.0
20260830151124 58 18 0.0 2.0 0.00 0.00 0.00 84 1002.0
20260830150057 57 260 1.0 2.0 0.00 0.00 0.00 84 1001.8
20260830145100 57 312 1.0 1.0 0.00 0.00 0.00 84 1002.0
20260830144124 57 284 1.0 2.0 0.00 0.00 0.00 84 1001.8
20260830143036 57 238 1.0 3.0 0.00 0.00 0.00 84 1001.9
20260830142100 57 299 1.0 2.0 0.00 0.00 0.00 85 1001.7
20260830141125 57 351 1.0 3.0 0.00 0.00 0.00 87 1001.8
20260830140037 56 328 1.0 3.0 0.00 0.00 0.00 88 1001.7
20260830135101 56 0.0 0.0 0.00 0.00 0.00 88 1001.5
20260830134124 57 339 1.0 2.0 0.00 0.00 0.00 87 1001.4
20260830133037 57 345 1.0 2.0 0.00 0.00 0.00 87 1001.3
20260830132100 57 323 2.0 2.0 0.00 0.00 0.00 88 1001.3
20260830131124 57 294 2.0 5.0 0.00 0.00 0.00 89 1001.2
20260830130036 57 318 2.0 5.0 0.00 0.00 0.00 89 1001.0
20260830125100 57 302 1.0 2.0 0.00 0.00 0.00 89 1001.1
20260830124124 57 275 2.0 3.0 0.00 0.00 0.00 88 1001.2
20260830123038 57 243 3.0 4.0 0.00 0.00 0.00 89 1000.9
20260830122100 57 305 2.0 2.0 0.00 0.00 0.00 89 1001.0
20260830121144 57 0.0 0.0 0.00 0.00 0.00 90 1000.9
20260830120056 57 334 1.0 2.0 0.00 0.00 0.00 89 1000.9
20260830115100 57 0.0 0.0 0.00 0.00 0.00 88 1000.9
20260830114144 57 0.0 0.0 0.00 0.00 0.00 89 1000.8
20260830113036 57 147 0.0 1.0 0.00 0.00 0.00 91 1000.6
20260830112120 57 143 1.0 3.0 0.00 0.00 0.00 88 1000.8
20260830111124 57 0.0 0.0 0.00 0.00 0.00 90 1000.7
20260830110036 56 0.0 0.0 0.00 0.01 0.00 90 1000.8
20260830105101 56 0.0 0.0 0.00 0.01 0.00 92 1000.8
20260830104125 57 258 0.0 1.0 0.00 0.01 0.00 90 1000.8
20260830103037 58 252 0.0 1.0 0.00 0.01 0.00 86 1000.6
20260830102101 58 310 0.0 1.0 0.00 0.01 0.00 83 1000.5
20260830101144 58 263 1.0 2.0 0.00 0.01 0.00 81 1000.5
20260830100057 59 0.0 0.0 0.00 0.01 0.00 80 1000.4
20260830095100 59 300 1.0 2.0 0.00 0.01 0.00 80 1000.3
20260830094124 58 159 1.0 1.0 0.00 0.01 0.00 81 1000.3
20260830093037 57 0.0 0.0 0.00 0.01 0.00 83 1000.3
20260830092100 57 324 1.0 2.0 0.00 0.01 0.00 84 1000.3
20260830091125 57 0.0 0.0 0.00 0.01 0.00 84 1000.4
20260830090036 58 235 2.0 3.0 0.00 0.01 0.00 81 1000.2
20260830085120 58 219 1.0 2.0 0.00 0.01 0.00 81 1000.2
20260830084124 58 0.0 0.0 0.00 0.01 0.00 82 1000.1
20260830083116 58 144 1.0 3.0 0.00 0.01 0.00 82 1000.3
20260830082101 58 186 0.0 1.0 0.00 0.01 0.00 80 1000.3
20260830081205 57 0.0 0.0 0.00 0.01 0.00 82 1000.1
20260830080056 57 0.0 0.0 0.00 0.01 0.00 83 1000.0
20260830075140 57 156 0.0 1.0 0.00 0.01 0.00 83 1000.0
20260830074124 57 154 0.0 1.0 0.00 0.01 0.00 84 999.9
20260830073056 56 155 1.0 1.0 0.00 0.01 0.00 84 999.8
20260830072141 56 149 1.0 2.0 0.00 0.01 0.00 85 999.9
20260830071124 56 0.0 0.0 0.00 0.01 0.00 85 999.8
20260830070037 55 0.0 0.0 0.00 0.01 0.00 88 999.6
20260830065101 55 161 1.0 2.0 0.00 0.01 0.00 89 999.6
20260830064125 55 148 1.0 3.0 0.00 0.01 0.00 88 999.6
20260830063037 55 145 2.0 3.0 0.00 0.01 0.00 88 999.4
20260830062101 55 149 2.0 4.0 0.00 0.01 0.00 88 999.4
20260830061124 55 0.0 0.0 0.00 0.01 0.00 87 999.6
20260830060037 55 0.0 0.0 0.00 0.01 0.00 88 999.7
20260830055100 55 146 1.0 2.0 0.00 0.01 0.00 88 999.5
20260830054204 55 150 0.0 1.0 0.00 0.01 0.00 87 999.5
20260830053036 55 209 0.0 1.0 0.00 0.01 0.00 87 999.6